Weather in Koytybozh

Russia / Komi Republic     61°51′34″N   50°43′51″E
temp.,
°C
wind,
m/s
gust,
m/s
humid.,
%
clouds,
%
prec.,
mm/h
press.,
hPa
HPBL,
m
16 april, fri
fri1600:000nnw25740 0.0 1029109
03:00−1nnw11762 0.0 103115
06:000w12755 0.0 1032106
09:00+4wnw23507 0.0 10321008
12:00+7wnw344325 0.0 10311442
15:00+8wnw464595 0.0 10301752
18:00+6wnw266111 0.0 1030282
21:00+2w27817 0.0 1030159
17 april, sat
sat1700:00+1wnw310895 0.0 1030246
03:000wnw39945 0.0 1030221
06:00+1wnw3108498 0.0 1030397
09:00+5wnw486191 0.0 1029806
12:00+8wnw5105170 0.0 10271552
15:00+9wnw5115376 0.0 10261851
18:00+7nw51162100 0.1 10251290
21:00+5wnw4127261 0.1 1025716
18 april, sun
sun1800:00+4n498899 0.1 1026960
03:00+1nne487075 0.2 1029891
06:00−1ne47685 0.0 1032864
09:00+1ene46350 0.0 10341276
12:00+3ene45250 0.0 10351678
15:00+4ene44260 0.0 10361770
18:00+3ene35365 0.0 1036719
21:00−1e27511 0.0 1038202
19 april, mon
mon1900:00−1ese25535 0.0 1039174
03:00−2se23555 0.0 104099
06:000sse125125 0.0 1040252
09:00+3s11355 0.0 10401081
12:00+6s1127100 0.0 10391332
15:00+7ssw11265 0.0 10381368
18:00+5ssw11354 0.0 1037270
21:00+2ssw22486 0.0 103731
20 april, tue
tue2000:000sw23555 0.0 103766
03:00−1sw235845 0.0 103766
06:00+1sw23505 0.0 1037154
09:00+6sw23335 0.0 1036780
12:00+9ssw22275 0.0 10351237
15:00+10ssw22265 0.0 10331347
18:00+8s22370 0.0 1032249
21:00+4sse23500 0.0 103240